ワイズ彗星

C/2010 E3 ( WISE )

English version
Home page
Updated on February 21, 2021

---------------------------------------------------------------------

・ プロフィール

発見日 2010年3月5日
発見光度
発見者 Wide Field Infrared Survey Explorer (NASA)

・ 軌道要素

Epoch 2010 Mar. 25.0 TT = JDT 2455280.5                                         
T 2010 Apr. 5.67667 TT                                  Rudenko                 
q   2.2680592            (2000.0)            P               Q                  
z  +0.0040834      Peri.   50.49934     -0.21569219     +0.41589453             
 +/-0.0010967      Node   117.26524     +0.24949879     -0.85125437             
e   0.9907386      Incl.   96.33703     +0.94404832     +0.31999648             
From 33 observations 2010 Jan. 4-Mar. 15, mean residual 0".7.                   

・ 光度変化

        m1 = 15.5 + 5 logΔ + 10.0 log r

---------------------------------------------------------------------

軌道要素はM.P.E.C. 2021-B143に掲載されたものです。
光度グラフはComet for Windowsで作成したものです。

---------------------------------------------------------------------

Copyright(C) Seiichi Yoshida (comet@aerith.net). All rights reserved.